(209237) = 2003 WL101

Discovered at Socorro on 2003-11-21 by LINEAR.

Orbit

Orbit type: Main Belt

Note: WebGL enabled browser required.

epoch2023-02-25.0
epoch JD2460000.5
perihelion date2020-11-15.58234
perihelion JD2459169.08234
argument of perihelion (°)65.88812
ascending node (°)319.70447
inclination (°)11.57606
eccentricity0.2814824
perihelion distance (AU)1.8955939
Tisserand w.r.t. Jupiter3.3
ΔV w.r.t. Earth (km/sec)9.3
semimajor axis (AU)2.6382010
mean anomaly (°)191.23231
mean daily motion (°/day)0.23000750
aphelion distance (AU)3.381
period (years)4.29
P-vector [x]0.88988116
P-vector [y]0.31047479
P-vector [z]0.33424083
Q-vector [x]-0.43734320
Q-vector [y]0.78904289
Q-vector [z]0.43144205
absolute magnitude16.48
phase slope0.15
uncertainty0
referenceMPO 745323
observations used605
oppositions12
arc length (days)8550
first opposition used1999
last opposition used2023
residual rms (arc-secs)0.69
perturbers coarse indicatorM-v
perturbers precise indicator003Ek
first observation date used1999-12-12.0
last observation date used2023-05-10.0
computer nameMPCLINUX
Minimum Orbit Intersection Distances (in AU)
for orbit epoch: 2460000.5, reference: E2023-J99
Mercury1.57152
Venus1.20118
Earth0.93015
Mars0.56917
Jupiter2.24363
Saturn6.33254
Uranus15.2185
Neptune27.4401

Observations

613 total observations over interval: 1999 12 12.36086 – 2023 05 10.385244
These data are available for download (format description).

Date (UT) J2000 RA J2000 Dec Magn Location Ref
1999 12 12.36086 07 16 21.31 +36 55 48.5 19.1   704 – Lincoln Laboratory ETS, New Mexico MPS 213115
1999 12 12.37755 07 16 20.21 +36 55 47.0 19.6   704 – Lincoln Laboratory ETS, New Mexico MPS 213115
1999 12 12.39539 07 16 19.02 +36 55 47.2 19.6   704 – Lincoln Laboratory ETS, New Mexico MPS 213115
1999 12 12.41132 07 16 17.99 +36 55 46.8 19.5   704 – Lincoln Laboratory ETS, New Mexico MPS 213115
1999 12 12.42683 07 16 16.89 +36 55 46.0 19.9   704 – Lincoln Laboratory ETS, New Mexico MPS 213115
2003 10 02.29948 02 22 18.65 +35 25 21.2 18.6   704 – Lincoln Laboratory ETS, New Mexico MPS 155890
2003 10 02.34035 02 22 17.42 +35 25 44.1 19.0   704 – Lincoln Laboratory ETS, New Mexico MPS 155890
2003 10 02.35316 02 22 17.05 +35 25 50.1 19.1   704 – Lincoln Laboratory ETS, New Mexico MPS 155890
2003 11 04.28794 01 54 44.15 +36 47 42.1 18.4   704 – Lincoln Laboratory ETS, New Mexico MPS 155890
2003 11 04.30023 01 54 43.40 +36 47 38.6 18.5   704 – Lincoln Laboratory ETS, New Mexico MPS 155890
2003 11 04.31237 01 54 42.72 +36 47 35.5 18.6   704 – Lincoln Laboratory ETS, New Mexico MPS 155890
2003 11 04.32495 01 54 41.94 +36 47 32.3 18.5   704 – Lincoln Laboratory ETS, New Mexico MPS 155890
2003 11 04.33734 01 54 41.19 +36 47 28.7 18.6   704 – Lincoln Laboratory ETS, New Mexico MPS 155890
2003 11 14.22370 01 46 48.26 +35 51 25.2 18.0   644 – Palomar Mountain/NEAT MPS 155890
2003 11 14.24508 01 46 47.31 +35 51 16.2 18.3   644 – Palomar Mountain/NEAT MPS 155890
2003 11 14.26502 01 46 46.45 +35 51 07.8 18.5   644 – Palomar Mountain/NEAT MPS 155890
2003 11 21.23636 01 43 04.86 +34 58 31.8 18.9   704 – Lincoln Laboratory ETS, New Mexico MPS 92091
2003 11 21.25475 01 43 04.31 +34 58 23.5 20.2   704 – Lincoln Laboratory ETS, New Mexico MPS 92091
2003 11 21.27296 01 43 03.84 +34 58 12.9 19.1   704 – Lincoln Laboratory ETS, New Mexico MPS 92091
2003 11 21.28987 01 43 03.37 +34 58 05.4 19.3   704 – Lincoln Laboratory ETS, New Mexico MPS 92091
2003 11 24.11848 01 42 06.69 +34 35 02.9 19.6   704 – Lincoln Laboratory ETS, New Mexico MPS 92091
2003 11 24.12691 01 42 06.47 +34 34 59.4 19.0   704 – Lincoln Laboratory ETS, New Mexico MPS 92091
2003 11 24.13528 01 42 06.26 +34 34 55.4 19.4   704 – Lincoln Laboratory ETS, New Mexico MPS 92091
2003 11 24.14738 01 42 06.09 +34 34 48.9 19.9   704 – Lincoln Laboratory ETS, New Mexico MPS 92091
2003 12 03.19399 01 41 17.57 +33 19 47.7 19.3   704 – Lincoln Laboratory ETS, New Mexico MPS 155890
2003 12 03.20717 01 41 17.64 +33 19 41.9 19.3   704 – Lincoln Laboratory ETS, New Mexico MPS 155890
2003 12 03.23333 01 41 17.70 +33 19 28.7 19.1   704 – Lincoln Laboratory ETS, New Mexico MPS 155890
2003 12 03.24631 01 41 17.78 +33 19 22.6 19.2   704 – Lincoln Laboratory ETS, New Mexico MPS 155890
2003 12 17.19428 01 46 36.98 +31 34 57.2 19.5   704 – Lincoln Laboratory ETS, New Mexico MPS 155890
2003 12 17.20696 01 46 37.38 +31 34 53.5 20.1   704 – Lincoln Laboratory ETS, New Mexico MPS 155890
2003 12 17.21990 01 46 37.78 +31 34 48.3 20.4   704 – Lincoln Laboratory ETS, New Mexico MPS 155890
2003 12 17.23256 01 46 38.34 +31 34 41.1 20.3   704 – Lincoln Laboratory ETS, New Mexico MPS 155890
2003 12 17.24523 01 46 38.73 +31 34 37.5 19.8   704 – Lincoln Laboratory ETS, New Mexico MPS 155890
2003 12 29.13930 01 56 41.89 +30 27 17.6 19.8   704 – Lincoln Laboratory ETS, New Mexico MPS 155890
2003 12 29.15281 01 56 42.77 +30 27 13.4 19.8   704 – Lincoln Laboratory ETS, New Mexico MPS 155890
2003 12 29.16628 01 56 43.63 +30 27 08.8 20.5   704 – Lincoln Laboratory ETS, New Mexico MPS 155890
2003 12 29.17974 01 56 44.33 +30 27 05.7 19.7   704 – Lincoln Laboratory ETS, New Mexico MPS 155890
2003 12 29.19319 01 56 45.24 +30 27 01.4 19.9   704 – Lincoln Laboratory ETS, New Mexico MPS 155890
2005 03 08.20860 11 07 45.06 -03 12 03.9 20.9 V 691 – Steward Observatory, Kitt Peak-Spacewatch MPS 212271
2005 03 08.23595 11 07 43.48 -03 11 58.6 20.6 V 691 – Steward Observatory, Kitt Peak-Spacewatch MPS 212271
2005 03 08.26137 11 07 42.02 -03 11 53.3 21.0 V 691 – Steward Observatory, Kitt Peak-Spacewatch MPS 212271
2007 07 19.41093 22 21 43.92 -11 19 45.7 19.3 V G96 – Mt. Lemmon Survey MPS 212271
2007 07 19.41485 22 21 43.84 -11 19 44.6 19.5 V G96 – Mt. Lemmon Survey MPS 212271
2007 07 19.41862 22 21 43.74 -11 19 43.7 19.4 V G96 – Mt. Lemmon Survey MPS 212271
2007 07 19.42241 22 21 43.63 -11 19 42.8 19.3 V G96 – Mt. Lemmon Survey MPS 212271
2007 08 15.21377 22 01 40.23 -09 44 07.0 18.7   704 – Lincoln Laboratory ETS, New Mexico MPS 213708
2007 08 15.21390 22 01 40.12 -09 44 07.4 18.0   704 – Lincoln Laboratory ETS, New Mexico MPS 213708
2007 08 15.22616 22 01 39.29 -09 44 05.2 19.0   704 – Lincoln Laboratory ETS, New Mexico MPS 213708
2007 08 15.22629 22 01 39.32 -09 44 04.7 18.6   704 – Lincoln Laboratory ETS, New Mexico MPS 213708
2007 08 15.23855 22 01 38.59 -09 44 01.5 18.6   704 – Lincoln Laboratory ETS, New Mexico MPS 213708
2007 08 15.23868 22 01 38.51 -09 44 03.1 19.0   704 – Lincoln Laboratory ETS, New Mexico MPS 213708
2007 08 15.25093 22 01 37.81 -09 43 59.9 19.5   704 – Lincoln Laboratory ETS, New Mexico MPS 213708
2007 08 15.25106 22 01 37.69 -09 44 01.1 18.6   704 – Lincoln Laboratory ETS, New Mexico MPS 213708
2007 08 15.26330 22 01 36.98 -09 43 57.4 19.0   704 – Lincoln Laboratory ETS, New Mexico MPS 213708
2007 08 15.26344 22 01 36.91 -09 43 59.0 18.7   704 – Lincoln Laboratory ETS, New Mexico MPS 213708
2007 08 21.30598 21 55 07.74 -09 26 54.0 18.0 R 699 – Lowell Observatory-LONEOS MPS 214276
2007 08 21.32784 21 55 06.24 -09 26 50.3   699 – Lowell Observatory-LONEOS MPS 214276
2007 08 21.34973 21 55 04.73 -09 26 47.0   699 – Lowell Observatory-LONEOS MPS 214276
2007 08 21.37163 21 55 03.28 -09 26 43.9   699 – Lowell Observatory-LONEOS MPS 214276
2007 08 22.27062 21 54 04.57 -09 24 15.1 18.1 R 699 – Lowell Observatory-LONEOS MPS 214426
2007 08 22.29251 21 54 03.09 -09 24 10.9   699 – Lowell Observatory-LONEOS MPS 214426
2007 08 22.31440 21 54 01.61 -09 24 07.4   699 – Lowell Observatory-LONEOS MPS 214426
2007 08 22.33636 21 54 00.09 -09 24 03.4   699 – Lowell Observatory-LONEOS MPS 214426
2007 09 04.30676 21 40 15.70 -08 48 20.8 19.0 V 703 – Catalina Sky Survey MPS 214426
2007 09 04.32265 21 40 14.77 -08 48 17.9 18.8 V 703 – Catalina Sky Survey MPS 214426
2007 09 04.33080 21 40 14.26 -08 48 16.7 19.0 V 703 – Catalina Sky Survey MPS 214426
2007 09 04.33892 21 40 13.76 -08 48 15.7 18.6 V 703 – Catalina Sky Survey MPS 214426
2007 09 07.18380 21 37 31.34 -08 40 12.8 18.5 C 704 – Lincoln Laboratory ETS, New Mexico MPS 291439
2007 09 07.19495 21 37 30.71 -08 40 09.5 18.4 C 704 – Lincoln Laboratory ETS, New Mexico MPS 291439
2007 09 07.21722 21 37 29.48 -08 40 07.3 18.0 C 704 – Lincoln Laboratory ETS, New Mexico MPS 291439
2007 09 07.22835 21 37 28.68 -08 40 04.9 18.5 C 704 – Lincoln Laboratory ETS, New Mexico MPS 291439
2007 09 14.18082 21 31 40.67 -08 19 26.6 19.1   704 – Lincoln Laboratory ETS, New Mexico MPS 216178
2007 09 14.19289 21 31 40.07 -08 19 23.7 19.2   704 – Lincoln Laboratory ETS, New Mexico MPS 216178
2007 09 14.20507 21 31 39.55 -08 19 21.3 19.1   704 – Lincoln Laboratory ETS, New Mexico MPS 216178
2007 09 14.21716 21 31 38.96 -08 19 19.1 19.1   704 – Lincoln Laboratory ETS, New Mexico MPS 216178
2007 09 14.22921 21 31 38.38 -08 19 16.9 19.4   704 – Lincoln Laboratory ETS, New Mexico MPS 216178
2007 09 15.97808 21 30 23.93 -08 13 49.9 19.0   A77 – Observatoire Chante-Perdrix, Dauban MPS 216178
2007 09 15.98174 21 30 23.78 -08 13 48.3 18.5   A77 – Observatoire Chante-Perdrix, Dauban MPS 216178
2007 09 15.98540 21 30 23.58 -08 13 48.0 19.0   A77 – Observatoire Chante-Perdrix, Dauban MPS 216178
2007 09 17.17591 21 29 36.65 -08 09 58.5 18.7   704 – Lincoln Laboratory ETS, New Mexico MPS 216178
2007 09 17.18813 21 29 36.15 -08 09 56.9 19.2   704 – Lincoln Laboratory ETS, New Mexico MPS 216178
2007 09 17.20034 21 29 35.68 -08 09 54.7 19.4   704 – Lincoln Laboratory ETS, New Mexico MPS 216178
2007 09 17.21255 21 29 35.20 -08 09 51.3 19.3   704 – Lincoln Laboratory ETS, New Mexico MPS 216178
2007 09 17.22504 21 29 34.61 -08 09 49.0 19.3   704 – Lincoln Laboratory ETS, New Mexico MPS 216178
2007 10 12.13075 21 24 46.58 -06 31 54.6 19.4 V 703 – Catalina Sky Survey MPS 220461
2007 10 12.13836 21 24 46.76 -06 31 51.7 19.4 V 703 – Catalina Sky Survey MPS 220461
2007 10 12.13838 21 24 46.62 -06 31 52.3 19.5   704 – Lincoln Laboratory ETS, New Mexico MPS 220461
2007 10 12.14613 21 24 46.87 -06 31 49.5 19.7 V 703 – Catalina Sky Survey MPS 220461
